FloripaSat 1
1 44885U 19093G   25196.80352006  .00004055  00000-0  34097-3 0  9998
2 44885  97.8185 284.4850 0012764  85.2787 274.9893 14.98787402302172
RS-44
1 44909U 19096E   25196.51703850  .00000021  00000-0  41729-4 0  9993
2 44909  82.5196 203.4014 0216792 211.2938 147.5110 12.79742130259287
UPMSat 2
1 46276U 20061E   25196.48368977  .00076712  00000-0  55273-3 0  9997
2 46276  97.2405 272.1905 0001990 146.8603 213.2787 15.73337615271109
SALSAT
1 46495U 20068K   25196.49029159  .00005902  00000-0  25273-3 0  9994
2 46495  97.8625 176.1914 0012405  45.2068 315.0174 15.23140316263999
CubeSX-Sirius-HSE
1 47951U 21022V   25157.62701764  .07883385  25648-5  89537-3 0  9993
2 47951  97.4004  72.1904 0010275 223.9924 136.0557 16.36879307233400
CubeSX-HSE
1 47952U 21022W   25157.69972699  .06655353  25454-5  93288-3 0  9992
2 47952  97.3980  72.5414 0010307 219.3637 140.6911 16.34906352233436
GRBAlpha
1 47959U 21022AD  25160.45426279  .07940347  25506-5  90589-3 0  9995
2 47959  97.3899  75.6235 0011032 227.2558 132.7812 16.36806138232695
TUBIN
1 48900U 21059X   25196.79309636  .00041904  00000-0  45788-3 0  9997
2 48900  97.6770   9.0428 0004013 106.9469 253.2229 15.63222182225696
LEDSAT
1 49069U 21073D   25196.73555462  .00071249  00000-0  71538-3 0  9991
2 49069  97.3865 279.9031 0007222 290.8852  69.1634 15.65234464217083
CUTE
1 49263U 21088D   25196.82667282  .00035203  00000-0  66517-3 0  9998
2 49263  97.4495 274.1620 0009062 109.9250 250.2977 15.48309153210036
TeikyoSat 4
1 49396U 21102B   25196.58888831  .00001716  00000-0  11607-3 0  9992
2 49396  97.4081 233.7158 0012840  17.7024 342.4649 15.07762512201974
Z-Sat
1 49399U 21102E   25196.82431471  .00002579  00000-0  14250-3 0  9991
2 49399  97.3777 237.2653 0017272 343.8371  16.2308 15.14654627202467
KOSEN 1
1 49402U 21102H   25196.66891886  .00005298  00000-0  24370-3 0  9993
2 49402  97.3680 240.8054 0014287 317.0217  42.9902 15.20675586202779
HO-113
1 50466U 21131B   25196.87200090  .00000361  00000-0  12659-3 0  9994
2 50466  98.5108 286.0482 0004772  42.3210 317.8346 14.40847478186673
Foresail-1
1 52766U 22057AL  25176.64799660  .13857605  27391-5  25307-3 0  9992
2 52766  97.5832 331.2310 0012137 233.7199 258.4922 16.46795272172486
SNUGLITE 2
1 52899U 22065F   25196.86923404  .00000711  00000-0  14716-3 0  9998
2 52899  98.1732 338.4990 0007617   9.9756 350.1596 14.63278542161793
UmKA 1 (RS40S)
1 57172U 23091G   25196.85502141  .00003443  00000-0  18417-3 0  9994
2 57172  97.5554 252.0516 0013770 202.8217 157.2405 15.15666832112977
CubeBel-2 (EU11S)
1 57175U 23091K   25196.85328563  .00006236  00000-0  29360-3 0  9993
2 57175  97.5553 253.4222 0011434 208.4301 151.6311 15.19845267113069
VERONIKA
1 58261U 23174F   25196.84260248  .00233639  00000-0  11019-2 0  9996
2 58261  97.4067 285.4968 0006876 238.5225 121.5372 15.82428611 94397
ENSO
1 58470U 23185J   25196.87041299  .00049651  00000-0  62841-3 0  9995
2 58470  97.3709 273.2439 0004748 297.5825  62.4949 15.59346616 90685
EIRSAT-1
1 58472U 23185L   25196.81856308  .00133364  00000-0  87069-3 0  9990
2 58472  97.3641 275.8290 0004341 264.0668  96.0103 15.75455218 90859
SONATE-2
1 59112U 24043Q   25196.31926949  .00013061  00000-0  36591-3 0  9995
2 59112  97.5181 328.2470 0010239 353.3646   6.7460 15.36700198 75827
MO-122
1 60209U 24125G   25196.58528808  .00015039  00000-0  41315-3 0  9993
2 60209  97.2760  47.8194 0018308  13.8714 346.3030 15.37149783 57488
GRBBeta
1 60237U 24128C   25196.66716698  .00002899  00000-0  22402-3 0  9998
2 60237  61.9926 313.7078 0054404  65.3145 295.3596 15.02885770 55623
Curium One
1 60242U 24128H   25196.57562082  .00005153  00000-0  35925-3 0  9990
2 60242  61.9824 311.7762 0054321  61.5288 299.1261 15.05541502 55657
ROBUSTA-3A
1 60243U 24128J   25196.72245984  .00005241  00000-0  37020-3 0  9993
2 60243  61.9896 312.2119 0053294  59.2542 301.3784 15.05067657 55665
CatSat
1 60246U 24125J   25196.58128548  .00008020  00000-0  26393-3 0  9992
2 60246  97.2563  46.6126 0040793 327.8602  32.0153 15.30951790 55495
HYPERVIEW-1G (RS66S)
1 61772U 24199AP  25196.89518471  .00016122  00000-0  45023-3 0  9993
2 61772  97.3483  65.6988 0014872  67.3176 292.9639 15.36682944 82539
AO-123
1 61781U 24199AY  25196.84667168  .00004932  00000-0  17843-3 0  9991
2 61781  97.3501  64.1329 0017415  71.8560 288.4575 15.28746154 82428
ZIMSAT 2
1 61783U 24199BA  25196.87888586  .00030493  00000-0  69308-3 0  9999
2 61783  97.3454  66.5948 0014343  65.1368 295.1370 15.42847742 85746
HADES-R (SO-124)
1 62690U 25009CK  25196.44557066  .00029902  00000-0  99258-3 0  9997
2 62690  97.4076 277.1618 0001146 335.2824  24.8362 15.31180102 27634
HYDRA-T
1 62692U 25009CM  25196.16312217  .00030882  00000-0  10156-2 0  9993
2 62692  97.4079 276.9285 0000929 327.6246  32.4938 15.31474092 27590
JINJUSat 1B
1 63210U 25052A   25196.51663670  .00009109  00000-0  41045-3 0  9999
2 63210  97.4370  90.1925 0004197 169.4764 190.6560 15.21264984 18714
NUSHSAT 1
1 63211U 25052B   25196.50537882  .00009804  00000-0  43772-3 0  9995
2 63211  97.4360  90.1919 0004019 173.9659 186.1626 15.21560524 18715
TEVEL2-4
1 63213U 25052D   25196.59208202  .00009649  00000-0  43496-3 0  9997
2 63213  97.4276  90.0982 0002679 183.7762 176.3454 15.21237599 18720
TEVEL2-5
1 63214U 25052E   25196.59317010  .00009391  00000-0  42372-3 0  9992
2 63214  97.4274  90.0971 0002678 183.8550 176.2665 15.21213433 18726
TEVEL2-6
1 63215U 25052F   25196.59626286  .00009324  00000-0  42126-3 0  9994
2 63215  97.4275  90.0947 0002683 185.6930 174.4276 15.21172459 18729
TEVEL2-1
1 63217U 25052H   25196.21782094  .00008234  00000-0  37495-3 0  9997
2 63217  97.4253  89.6447 0002281 205.0456 155.0669 15.20940055 18668
TEVEL2-2
1 63218U 25052J   25196.21809205  .00008183  00000-0  37261-3 0  9996
2 63218  97.4254  89.6456 0002300 206.5077 153.6041 15.20942442 18667
TEVEL2-3
1 63219U 25052K   25196.41572778  .00008134  00000-0  37046-3 0  9998
2 63219  97.4253  89.8393 0002309 205.1414 154.9709 15.20938339 18696
TEVEL2-8
1 63237U 25052AD  25196.44391886  .00008567  00000-0  40394-3 0  9990
2 63237  97.4315  89.7511 0006202 243.0090 117.0512 15.19711106 18683
TEVEL2-9
1 63238U 25052AE  25196.44775516  .00008593  00000-0  40595-3 0  9999
2 63238  97.4319  89.7490 0006315 243.2268 116.8321 15.19643219 18682
TEVEL2-7
1 63239U 25052AF  25196.51634911  .00008861  00000-0  41885-3 0  9992
2 63239  97.4317  89.8086 0006327 243.4428 116.6159 15.19612039 18690
HYDRA-W
1 63490U 25052BL  25196.65792575  .00023117  00000-0  93362-3 0  9995
2 63490  97.4265  90.4523 0009519 238.0617 121.9696 15.24730774 18756
HADES-ICM (SO-125)
1 63492U 25052BN  25196.68401841  .00019520  00000-0  80141-3 0  9997
2 63492  97.4271  90.4261 0009707 243.0799 116.9447 15.24212047 18756
